CAPE
403 317 270 151 110 153 190 145 117 102 66 8 4 0 0 0 0 0 0 0 0 0 0 0 0 0 0 0 0 0 0 0 0 0 0 0 0 0 0 0 0 0 0
278 377 293 160 176 140 167 118 63 68 61 4 1 0 0 0 0 0 0 0 0 0 0 0 0 0 0 0 0 0 0 0 0 0 0 0 0 0 0 0 0 0 0
156 217 207 106 195 196 169 110 72 38 32 22 5 0 0 0 0 0 0 0 0 0 0 0 0 0 0 0 0 0 0 0 0 0 0 0 0 0 0 0 0 0 0
102 163 232 147 196 194 146 102 42 4 30 13 4 0 0 0 0 0 0 0 0 0 0 0 0 0 0 0 0 0 0 0 0 0 0 0 0 0 0 0 0 0 0
123 91 98 147 126 233 175 82 37 17 14 6 5 0 0 0 0 0 0 0 0 0 0 0 0 0 0 0 0 0 0 0 0 0 0 0 0 0 0 0 0 0 0
139 112 95 50 81 221 213 91 25 15 16 20 0 0 0 0 0 0 0 0 0 0 0 0 0 0 0 0 0 0 0 0 0 0 0 0 0 0 0 0 0 0 0
196 134 120 93 64 134 167 83 56 11 23 40 12 0 0 0 0 0 0 0 0 0 0 0 0 0 0 0 0 0 0 0 0 0 0 0 0 0 0 0 0 0 0
282 223 132 74 73 89 181 159 130 111 65 14 0 0 0 0 0 0 0 0 0 0 0 0 2 0 0 0 0 0 0 0 0 0 0 0 0 0 0 0 0 0 0
301 265 251 162 126 126 156 207 259 232 167 83 39 12 0 0 0 0 0 0 0 0 1 11 11 19 9 9 12 9 8 2 0 0 0 0 0 0 0 0 0 0 0
299 277 232 178 64 83 108 166 303 322 271 168 97 106 72 30 22 26 25 9 7 2 3 12 13 16 24 23 27 32 14 8 6 3 1 0 0 0 0 0 0 0 0
57 15 0 0 0 0 0 0 8 67 67 39 76 111 98 91 101 100 93 62 24 17 18 17 20 35 34 35 40 20 23 19 5 4 0 3 3 0 2 0 0 0 0
0 0 0 0 0 0 0 0 0 0 0 0 0 0 4 51 52 76 80 79 49 12 19 0 26 22 21 28 22 23 19 7 4 3 1 11 6 0 1 2 5 0 0
0 0 0 0 0 0 0 0 0 0 1 0 0 0 0 0 0 0 0 0 0 0 4 8 25 1 2 12 0 3 0 0 0 0 0 2 5 5 7 1 0 0 0
0 0 0 0 0 0 0 0 0 0 0 1 0 1 1 0 1 0 0 0 0 0 0 0 0 0 1 3 0 0 0 0 0 0 0 0 0 0 0 2 0 0 0
0 0 0 0 0 0 0 0 0 0 0 0 1 1 2 1 1 0 0 0 0 0 0 0 0 0 2 2 1 0 0 0 0 0 0 0 0 0 0 0 0 1 1
0 0 0 0 0 0 0 0 0 0 0 0 0 0 0 0 0 0 0 0 0 0 0 1 1 1 2 4 4 1 0 0 1 2 1 1 0 0 0 0 0 0 1
0 0 0 0 0 0 0 0 0 0 0 0 0 0 0 0 0 0 0 0 0 0 0 0 0 0 1 2 1 2 0 0 0 0 1 1 1 1 2 1 0 0 0
0 0 0 0 0 0 0 0 0 0 0 0 0 0 0 0 0 0 0 0 0 0 0 0 0 0 0 0 1 1 1 0 0 1 2 2 1 1 1 2 0 0 1
0 0 0 0 0 0 0 0 0 0 0 0 0 0 0 0 0 0 0 0 0 0 0 0 0 0 0 0 0 0 0 0 1 0 0 0 0 0 0 0 1 1 0
0 0 0 0 0 0 0 0 0 0 0 0 0 0 0 0 0 0 0 0 0 0 0 0 0 0 0 0 0 0 0 0 0 0 0 0 1 0 2 1 1 0 0
0 0 0 0 0 0 0 0 0 0 0 0 0 0 0 0 0 0 0 0 0 0 0 0 0 0 0 0 0 0 0 0 0 0 0 0 0 0 0 0 0 1 2
0 0 0 0 0 0 0 0 0 0 0 0 0 0 0 0 0 0 0 0 0 0 0 0 0 0 0 0 0 0 1 0 0 0 0 0 0 2 1 0 0 0 1
0 0 0 0 0 0 0 0 0 0 0 0 0 0 0 0 0 0 0 0 0 0 0 0 0 0 0 0 0 0 0 0 0 0 0 1 2 1 0 0 3 1 0
0 0 0 0 0 0 0 0 0 0 0 0 0 0 0 0 0 0 0 0 0 0 0 0 0 0 0 0 0 0 0 0 0 0 0 0 0 0 0 0 0 1 1
0 0 0 0 0 0 0 0 0 0 0 0 0 0 0 0 0 0 0 0 0 0 0 0 0 0 0 0 0 0 0 0 0 0 0 0 0 0 0 0 0 0 0
0 0 0 0 0 0 0 0 0 0 0 0 0 0 0 0 0 0 0 0 0 0 0 0 0 0 0 0 0 0 0 0 1 0 0 0 0 0 0 0 0 0 0
CIN
-41 -47 -37 -25 -18 -21 -24 -28 -26 -18 -13 -59 -66 -0 -0 -0 -0 -0 -0 -0 -0 -0 -0 -0 -0 -0 -0 -0 -0 -0 -0 -0 -0 -0 -0 -0 -0 -0 -0 -0 -0 -0 -0
-85 -48 -44 -27 -17 -23 -27 -36 -46 -63 -43 -83 -99 -0 -0 -0 -0 -0 -0 -0 -0 -0 -0 -0 -0 -0 -0 -0 -0 -0 -0 -0 -0 -0 -0 -0 -0 -0 -0 -0 -0 -0 -0
-137 -95 -61 -76 -23 -8 -23 -39 -46 -45 -47 -79 -130 -0 -0 -0 -0 -0 -0 -0 -0 -0 -0 -0 -0 -0 -0 -0 -0 -0 -0 -0 -0 -0 -0 -0 -0 -0 -0 -0 -0 -0 -0
-123 -110 -60 -73 -34 -18 -27 -32 -38 -71 -66 -97 -143 -0 -0 -0 -0 -0 -0 -0 -0 -0 -0 -0 -0 -0 -0 -0 -0 -0 -0 -0 -0 -0 -0 -0 -0 -0 -0 -0 -0 -0 -0
-159 -172 -118 -84 -68 -18 -24 -37 -41 -74 -89 -104 -129 -0 -0 -0 -0 -0 -0 -0 -0 -0 -0 -0 -0 -0 -0 -0 -0 -0 -0 -0 -0 -0 -0 -0 -0 -0 -0 -0 -0 -0 -0
-150 -173 -149 -117 -101 -34 -23 -28 -38 -53 -52 -65 -0 -0 -0 -0 -0 -0 -0 -0 -0 -0 -0 -0 -0 -0 -0 -0 -0 -0 -0 -0 -0 -0 -0 -0 -0 -0 -0 -0 -0 -0 -0
-183 -202 -208 -168 -150 -119 -79 -73 -54 -67 -50 -57 -93 -0 -0 -0 -0 -0 -0 -0 -0 -0 -0 -0 -0 -0 -0 -0 -0 -0 -0 -0 -0 -0 -0 -0 -0 -0 -0 -0 -0 -0 -0
-184 -185 -212 -205 -172 -172 -125 -117 -97 -71 -67 -78 -0 -0 -0 -0 -0 -0 -0 -0 -0 -0 -0 -0 -59 -0 -0 -0 -0 -0 -0 -0 -0 -0 -0 -0 -0 -0 -0 -0 -0 -0 -0
-156 -161 -148 -183 -187 -166 -145 -131 -97 -81 -79 -90 -69 -100 -0 -0 -0 -2 -0 -0 -0 -0 -72 -83 -84 -84 -84 -76 -74 -67 -72 -84 -13 -13 -0 -0 -0 -0 -0 -0 -0 -0 -0
-167 -174 -186 -204 -250 -233 -198 -125 -89 -75 -70 -70 -68 -51 -53 -86 -67 -64 -60 -46 -53 -28 -78 -83 -77 -71 -81 -82 -87 -79 -67 -81 -95 -107 -108 -22 -0 -0 -0 -0 -0 -0 -0
-293 -108 -0 -0 -0 -0 -0 -0 -73 -202 -203 -204 -133 -77 -63 -70 -79 -89 -86 -117 -59 -56 -59 -76 -70 -67 -74 -78 -89 -85 -93 -103 -94 -106 -6 -106 -112 -35 -114 -0 -0 -0 -0
-0 -0 -0 -0 -0 -0 -0 -0 -0 -0 -0 -0 -0 -12 -67 -96 -66 -59 -83 -86 -98 -79 -54 -1 -61 -61 -80 -83 -80 -81 -105 -111 -108 -126 -136 -126 -136 -134 -123 -133 -113 -0 -0
-0 -0 -0 -0 -0 -0 -0 -0 -0 -0 -0 -0 -0 -0 -0 -0 -0 -0 -0 -0 -0 -0 -89 -82 -71 -52 -49 -74 -81 -79 -0 -0 -0 -0 -0 -131 -137 -119 -164 -90 -0 -0 -0
-0 -0 -0 -0 -0 -0 -0 -0 -0 -0 -0 -0 -0 -0 -0 -0 -0 -0 -0 -0 -0 -0 -0 -0 -0 -0 -32 -63 -39 -0 -0 -0 -0 -0 -0 -0 -0 -0 -0 -145 -0 -0 -0
-0 -0 -0 -0 -0 -0 -0 -0 -0 -0 -0 -0 -0 -0 -0 -0 -0 -0 -0 -0 -0 -0 -0 -0 -0 -0 -0 -0 -0 -0 -0 -0 -0 -0 -0 -0 -0 -0 -0 -0 -0 -0 -0
-0 -0 -0 -0 -0 -0 -0 -0 -0 -0 -0 -0 -0 -0 -0 -0 -0 -0 -0 -0 -0 -0 -0 -0 -0 -0 -0 -0 -0 -0 -0 -0 -0 -0 -0 -0 -0 -0 -0 -0 -0 -0 -0
-0 -0 -0 -0 -0 -0 -0 -0 -0 -0 -0 -0 -0 -0 -0 -0 -0 -0 -0 -0 -0 -0 -0 -0 -0 -0 -0 -0 -0 -0 -0 -0 -0 -0 -0 -0 -0 -0 -0 -0 -0 -0 -0
-0 -0 -0 -0 -0 -0 -0 -0 -0 -0 -0 -0 -0 -0 -0 -0 -0 -0 -0 -0 -0 -0 -0 -0 -0 -0 -0 -0 -0 -0 -0 -0 -0 -0 -0 -0 -0 -0 -0 -0 -0 -0 -0
-0 -0 -0 -0 -0 -0 -0 -0 -0 -0 -0 -0 -0 -0 -0 -0 -0 -0 -0 -0 -0 -0 -0 -0 -0 -0 -0 -0 -0 -0 -0 -0 -0 -0 -0 -0 -0 -0 -0 -0 -0 -0 -0
-0 -0 -0 -0 -0 -0 -0 -0 -0 -0 -0 -0 -0 -0 -0 -0 -0 -0 -0 -0 -0 -0 -0 -0 -0 -0 -0 -0 -0 -0 -0 -0 -0 -0 -0 -0 -0 -0 -0 -0 -0 -0 -0
-0 -0 -0 -0 -0 -0 -0 -0 -0 -0 -0 -0 -0 -0 -0 -0 -0 -0 -0 -0 -0 -0 -0 -0 -0 -0 -0 -0 -0 -0 -0 -0 -0 -0 -0 -0 -0 -0 -0 -0 -0 -0 -0
-0 -0 -0 -0 -0 -0 -0 -0 -0 -0 -0 -0 -0 -0 -0 -0 -0 -0 -0 -0 -0 -0 -0 -0 -0 -0 -0 -0 -0 -0 -0 -0 -0 -0 -0 -0 -0 -0 -0 -0 -0 -0 -1
-0 -0 -0 -0 -0 -0 -0 -0 -0 -0 -0 -0 -0 -0 -0 -0 -0 -0 -0 -0 -0 -0 -0 -0 -0 -0 -0 -0 -0 -0 -0 -0 -0 -0 -0 -0 -0 -0 -0 -0 -0 -0 -0
-0 -0 -0 -0 -0 -0 -0 -0 -0 -0 -0 -0 -0 -0 -0 -0 -0 -0 -0 -0 -0 -0 -0 -0 -0 -0 -0 -0 -0 -0 -0 -0 -0 -0 -0 -0 -0 -0 -0 -0 -0 -4 -3
-0 -0 -0 -0 -0 -0 -0 -0 -0 -0 -0 -0 -0 -0 -0 -0 -0 -0 -0 -0 -0 -0 -0 -0 -0 -0 -0 -0 -0 -0 -0 -0 -0 -0 -0 -0 -0 -0 -0 -0 -0 -0 -0
-0 -0 -0 -0 -0 -0 -0 -0 -0 -0 -0 -0 -0 -0 -0 -0 -0 -0 -0 -0 -0 -0 -0 -0 -0 -0 -0 -0 -0 -0 -0 -1 -0 -0 -0 -0 -0 -0 -0 -0 -0 -0 -0
Wind_Speed
13 9 7 8 10 11 10 10 10 7 10 10 6 5 4 3 3 2 4 4 6 6 1 3 4 8 8 7 7 10 10 11 8 11 15 13 10 7 7 6 6 7 7
12 10 9 8 11 10 10 10 10 9 11 10 7 6 5 5 4 3 3 5 6 7 4 5 6 7 7 7 8 9 12 12 6 12 14 17 17 10 6 7 6 5 6
13 10 9 9 11 11 10 10 12 8 11 12 8 5 6 7 8 7 6 8 5 7 9 7 6 6 8 7 6 4 6 7 8 9 15 18 19 19 16 8 7 7 8
14 10 8 9 11 11 11 11 12 10 10 11 9 8 9 9 11 8 9 10 8 8 11 9 7 7 13 10 6 5 6 8 8 12 10 15 18 20 23 19 15 10 10
14 11 9 9 11 11 11 12 13 13 11 13 10 10 10 12 12 12 10 12 12 11 12 11 10 11 13 12 8 7 7 7 11 12 16 15 16 18 20 30 24 21 8
16 12 9 8 10 11 11 11 13 12 11 13 10 11 12 13 13 12 12 12 13 12 12 12 12 12 11 9 8 6 6 6 9 11 12 13 16 16 16 19 31 29 30
16 13 11 10 11 14 13 12 13 12 12 15 14 14 15 15 15 14 13 14 14 14 12 12 12 13 11 9 9 7 6 6 7 8 10 10 12 18 21 23 28 29 27
18 15 13 11 11 14 14 14 14 14 14 15 15 15 18 19 21 16 15 14 12 12 12 10 9 9 9 9 9 10 10 10 10 10 10 12 12 14 18 22 27 35 32
23 20 18 15 12 10 16 14 15 15 15 15 17 17 19 20 23 21 17 16 16 15 14 13 13 13 12 11 12 13 12 12 12 13 14 16 16 16 16 20 23 26 34
22 21 19 18 16 15 12 12 15 17 17 18 19 20 21 21 22 21 20 19 20 20 20 18 17 17 18 17 16 16 15 16 17 18 20 20 20 20 21 22 22 22 26
23 19 17 16 14 13 13 13 15 16 17 21 22 26 26 26 27 26 24 22 23 22 22 22 22 21 21 21 20 20 21 22 23 23 24 26 25 26 26 25 26 27 26
22 19 18 16 16 14 14 15 18 17 19 21 24 23 25 25 26 28 26 26 27 26 26 26 26 26 26 24 24 26 25 25 27 27 29 29 29 29 28 28 27 28 27
21 21 19 19 19 18 17 17 17 18 18 21 21 23 24 23 23 24 25 25 26 26 27 28 29 29 28 29 28 28 29 29 30 30 29 29 30 30 30 30 31 30 31
21 22 22 20 20 20 19 17 17 17 17 19 22 23 22 24 24 24 24 26 26 26 27 27 27 28 30 30 30 29 30 31 32 31 31 32 32 32 32 32 31 31 32
25 25 24 23 22 22 22 21 19 19 19 19 20 23 24 24 25 26 26 26 27 28 27 28 28 28 27 29 32 33 34 36 35 34 33 33 31 30 31 32 33 33 34
27 26 26 26 25 24 23 23 22 22 21 22 23 24 24 25 25 26 26 27 28 29 31 32 32 32 30 32 33 35 36 36 38 38 37 35 36 34 36 35 35 35 36
24 25 24 24 24 25 25 25 24 23 23 22 22 23 24 26 27 27 28 30 31 32 32 32 32 33 33 34 35 36 36 37 38 39 39 41 40 40 40 40 39 39 39
20 19 20 21 21 22 22 22 22 23 23 23 23 24 25 26 26 27 27 28 29 30 31 32 32 33 33 35 36 37 37 38 37 37 39 40 42 39 42 45 41 41 42
25 23 21 20 20 21 21 22 22 22 22 23 24 24 25 25 25 26 27 28 28 29 30 31 31 32 32 33 34 36 36 37 38 37 38 39 41 43 43 43 44 46 44
23 22 21 21 21 22 22 22 22 22 23 23 23 23 24 25 25 26 26 27 27 28 29 29 29 30 30 30 32 34 35 37 38 37 37 37 39 40 42 43 45 49 46
19 17 18 20 20 20 20 22 22 23 23 23 23 23 24 24 25 26 26 27 27 27 28 28 28 29 30 31 33 34 34 36 37 38 38 37 41 43 44 44 44 44 44
20 20 20 21 20 20 21 23 24 22 22 22 22 23 23 24 25 25 26 26 26 27 28 28 29 29 30 32 32 33 34 36 37 38 37 38 40 42 42 42 42 44 44
20 20 20 21 21 21 21 22 22 21 22 21 22 22 22 23 23 24 25 25 25 26 27 28 31 31 31 31 31 32 34 34 35 36 37 40 41 42 41 41 42 42 42
16 18 20 21 22 21 20 20 20 20 21 21 21 21 21 22 22 22 23 24 26 27 28 30 31 32 31 32 33 34 35 36 37 37 39 39 40 40 41 41 40 40 42
17 15 15 17 19 19 20 18 18 18 20 20 21 21 20 21 22 22 23 23 23 24 27 29 29 31 32 32 33 35 36 37 38 41 39 39 40 41 41 41 41 42 42
18 18 17 16 14 14 16 18 18 18 19 19 20 20 20 21 21 22 23 23 23 25 25 26 27 28 30 32 33 35 37 38 39 39 40 41 41 42 43 43 43 43 43
Wind_Direction
234 223 202 204 223 220 198 185 182 195 212 229 211 225 209 209 250 270 283 292 293 295 356 313 300 281 286 301 308 301 310 312 348 342 330 341 356 5 5 4 3 359 1
226 230 227 210 227 220 204 188 201 204 219 220 220 219 227 249 256 271 284 288 287 288 294 294 289 286 294 302 303 308 306 316 1 336 334 329 330 339 344 344 344 344 347
217 225 220 210 225 212 195 197 221 170 208 220 220 210 240 257 267 270 273 277 279 284 282 286 293 298 295 300 314 333 333 331 333 336 332 327 324 330 334 335 337 338 337
232 226 217 198 206 206 214 215 221 214 213 220 219 223 237 248 261 264 274 275 277 282 278 283 291 294 286 295 307 319 325 327 328 326 326 327 329 323 319 325 328 330 328
224 217 208 205 200 205 207 219 229 234 228 238 227 232 242 257 262 266 272 274 275 276 274 278 286 286 288 294 303 310 315 320 322 322 323 320 319 320 318 297 314 319 329
228 229 225 200 196 207 207 209 229 226 230 244 230 234 242 252 260 263 270 272 272 274 276 277 281 285 291 299 305 309 313 313 316 319 321 323 325 324 322 318 296 283 296
224 220 210 199 185 193 206 211 217 223 222 243 242 243 250 255 259 261 267 268 271 276 272 272 277 283 288 292 299 301 304 306 310 311 312 315 316 316 313 311 305 305 312
225 223 215 208 202 183 196 214 215 224 230 238 244 246 254 259 263 263 265 265 267 270 273 268 274 279 283 287 287 294 296 299 301 304 307 311 311 312 310 308 307 296 304
233 234 237 236 232 211 184 207 229 234 232 236 248 250 257 261 264 267 266 264 266 270 271 270 275 277 279 280 283 287 288 293 294 298 301 303 306 305 305 306 305 306 303
232 233 237 243 250 251 239 222 241 246 249 252 252 255 260 263 266 267 267 268 270 271 274 276 276 278 282 284 284 286 288 289 293 295 298 299 301 300 300 300 301 302 303
233 229 231 241 250 253 256 259 256 253 255 258 261 262 264 265 267 269 268 270 272 273 275 276 278 281 283 285 283 284 288 288 290 292 293 293 295 295 296 296 297 297 298
231 232 234 241 249 253 255 257 265 265 264 265 264 267 269 269 269 270 275 275 276 278 279 281 281 283 283 284 284 284 285 285 287 289 289 291 294 292 292 293 292 292 294
233 236 240 243 251 255 258 261 266 269 272 270 270 269 272 274 274 276 279 281 282 284 285 285 284 285 286 287 286 287 286 287 288 290 290 290 291 291 293 291 292 293 294
238 242 245 248 252 258 258 262 268 271 273 273 272 271 276 278 279 281 283 286 287 286 287 289 290 291 291 291 290 289 288 289 290 291 291 291 290 291 292 292 293 292 294
246 247 248 251 254 257 259 266 269 273 275 276 276 277 279 281 282 283 286 287 287 289 290 291 291 294 295 295 294 294 294 294 291 291 290 291 289 289 288 292 292 293 293
252 253 253 254 256 258 261 264 268 273 276 277 277 280 282 283 285 286 287 288 288 290 291 291 292 292 292 295 296 296 294 294 296 297 298 296 293 290 289 286 286 290 290
255 254 255 254 256 259 262 265 268 272 275 277 279 281 283 284 286 287 288 288 289 291 292 293 294 293 294 296 297 297 296 296 296 296 296 296 298 301 299 296 294 291 288
258 258 257 256 258 261 263 267 269 271 274 277 280 283 284 285 288 289 290 291 292 292 293 294 295 295 295 296 298 298 298 297 297 298 299 299 299 299 300 295 296 301 297
264 263 263 263 264 265 267 267 268 272 275 277 280 284 286 287 289 291 293 294 295 295 296 297 298 298 299 301 301 301 301 300 300 301 301 301 301 302 303 301 303 300 300
263 262 264 266 267 269 270 268 270 272 275 278 282 286 289 290 292 294 296 298 299 299 300 301 302 303 303 306 306 306 304 302 302 304 304 305 304 304 305 304 303 301 301
263 264 265 266 268 270 270 270 273 276 281 284 286 288 291 293 295 296 298 299 300 301 302 303 305 306 307 307 308 309 307 306 305 305 305 306 306 305 306 305 304 303 304
265 266 266 267 269 270 269 270 273 278 282 285 287 289 292 295 297 298 300 301 302 303 304 305 306 309 310 311 311 312 311 310 308 307 308 309 309 309 308 308 306 305 305
271 271 269 270 273 275 273 272 277 282 285 287 289 292 295 297 300 301 302 303 305 305 306 306 305 309 311 312 314 314 314 313 312 311 310 310 310 309 309 309 309 308 307
280 276 270 271 273 276 277 277 280 283 285 287 290 294 296 298 302 304 305 305 305 305 306 307 307 308 311 312 313 313 313 313 312 311 311 311 312 311 311 311 311 310 309
283 283 280 277 276 277 277 280 283 285 285 288 291 294 298 300 301 305 307 308 310 311 308 309 310 310 310 313 314 314 314 314 313 312 312 312 312 312 313 313 313 313 311
279 280 281 282 284 284 283 283 286 287 286 289 292 295 297 300 303 304 306 314 315 315 316 316 315 314 314 314 315 315 315 314 314 313 312 312 312 312 313 313 313 314 313